NEOCPH21 TR93D0F KC2012 09 15.92482 23 00 00.96 +11 39 37.7 x18.6 R D0457J04 TR93D0F KC2012 09 15.92944 23 00 06.98 +11 41 14.0 x18.7 R D0457J04 TR93D0F KC2012 09 15.98165 22 59 49.82 +11 38 38.6 x19.3 VvPrComI93 TR93D0F KC2012 09 15.98257 22 59 51.09 +11 38 55.3 x18.9 VvPrComI93 TR93D0F KC2012 09 15.98366 22 59 52.58 +11 39 15.0 x18.9 VvPrComI93 TR93D0F C2012 09 16.15390 23 11 50.10 +12 42 17.2 x19.0 VrD0457703 TR93D0F C2012 09 16.15806 23 11 57.76 +12 43 51.9 x19.2 VrD0457703 TR93D0F C2012 09 16.16224 23 12 05.32 +12 45 27.1 x19.9 VrD0457703 TR93D0F C2012 09 16.16640 23 12 12.67 +12 47 02.3 x19.0 VrD0457703 TR93D0F C2012 09 16.19590 23 13 02.38 +12 58 07.8 x19.1 VrD0457703 TR93D0F C2012 09 16.20278 23 13 13.11 +13 00 40.0 x18.7 VrD0457703 TR93D0F C2012 09 16.20980 23 13 23.73 +13 03 12.8 x18.6 VrD0457703 TR93D0F C2012 09 16.21679 23 13 34.53 +13 05 47.1 x18.6 VrD0457703 TR93D0F KC2012 10 04.00370922 53 44.74 +10 52 24.1 x18.2 RuD0457J95 TR93D0F KC2012 10 04.00998522 53 55.55 +10 54 03.9 x18.9 RuD0457J95 TR93D0F KC2012 10 04.01282922 54 00.55 +10 54 49.2 x19.2 RuD0457J95 TR93D0F KC2012 10 04.01706422 54 08.08 +10 55 56.6 x18.8 RuD0457J95 TR93D0F KC2012 10 14.86769101 12 45.69 +21 01 58.8 x17.8 RuD0458J95 TR93D0F KC2012 10 14.86927501 12 57.21 +21 02 49.6 x17.7 RuD0458J95 TR93D0F KC2012 10 14.87085801 13 08.67 +21 03 40.5 x17.9 RuD0458J95 TR93D0F KC2012 10 14.87232301 13 19.31 +21 04 28.1 x17.7 RuD0458J95 TR93D0F KC2012 11 01.85478501 37 02.57 +21 52 16.6 x16.5 RuD0459J95 TR93D0F KC2012 11 01.85628401 37 16.51 +21 53 03.6 x16.7 RuD0459J95 TR93D0F KC2012 11 01.85779901 37 30.62 +21 53 50.9 x16.7 RuD0459J95 TR93D0F C2013 10 23.44937 08 57 08.60 -00 11 27.5 x12.6 VqD0497703 TR93D0F C2013 10 23.44958 08 57 18.12 -00 11 13.4 x12.5 VqD0497703 TR93D0F C2013 10 23.44979 08 57 27.69 -00 10 58.5 x12.6 VqD0497703 TR93D0F KC2013 10 29.80863422 36 06.52 +05 22 09.9 x qD0497J95 TR93D0F KC2013 10 29.81765822 36 24.58 +05 23 46.5 x20.7 RqD0497J95 TR93D0F KC2013 10 29.83327322 36 55.94 +05 26 34.1 x20.6 RqD0497J95 TR93D0F KC2013 10 29.84477822 37 19.03 +05 28 34.6 x20.7 RqD0497J95 TR93D0F KC2013 10 29.85145722 37 32.45 +05 29 43.3 x qD0497J95 TR93D0F KC2013 10 29.86507922 38 00.04 +05 32 04.6 x20.4 RqD0497J95 TR93D0F KC2013 10 29.88463322 38 40.14 +05 35 24.1 x20.6 RqD0497J95 TR93D0F C2013 10 31.12854 00 06 57.94 +09 57 58.5 x rD0497G96 TR93D0F C2013 10 31.13631 00 07 25.98 +09 59 56.3 x rD0497G96 TR93D0F C2013 10 31.14409 00 07 53.70 +10 01 51.7 x18.5 VrD0497G96 TR93D0F C2013 10 31.15186 00 08 21.20 +10 03 45.4 x rD0497G96 TR93D0F C2013 10 31.16050 00 08 51.75 +10 05 49.9 x18.4 VrD0497G96 TR93D0F C2013 10 31.16078 00 08 52.74 +10 05 53.8 x18.5 VrD0497G96 TR93D0F C2013 10 31.16106 00 08 53.71 +10 05 57.6 x18.2 VrD0497G96 TR93D0F C2013 10 31.16134 00 08 54.71 +10 06 01.7 x18.4 VrD0497G96 TR93D0F C2013 10 31.16162 00 08 55.69 +10 06 05.7 x18.5 VrD0497G96 TR93D0F C2013 10 31.19544 00 10 54.79 +10 13 51.0 x18.4 VrD0497G96 TR93D0F C2013 10 31.19569 00 10 55.68 +10 13 54.3 x18.5 VrD0497G96 TR93D0F C2013 10 31.19595 00 10 56.59 +10 13 57.8 x18.3 VrD0497G96 TR93D0F C2013 10 31.19621 00 10 57.53 +10 14 01.1 x18.2 VrD0497G96 TR93D0F C2013 10 31.25025 00 14 12.87 +10 25 05.8 x18.4 VrD0497G96 TR93D0F C2013 10 31.25051 00 14 13.84 +10 25 08.8 x18.2 VrD0497G96 TR93D0F C2013 10 31.25077 00 14 14.80 +10 25 11.5 x18.3 VrD0497G96 TR93D0F C2013 10 31.25103 00 14 15.79 +10 25 14.6 x18.5 VrD0497G96 TR93D0F C2013 10 31.34803 00 21 00.26 +10 40 56.0 x18.2 VrD0497G96 TR93D0F C2013 10 31.34829 00 21 01.45 +10 40 57.9 x18.1 VrD0497G96 TR93D0F C2013 10 31.34854 00 21 02.68 +10 41 00.2 x18.4 VrD0497G96 TR93D0F C2013 10 31.34880 00 21 03.88 +10 41 02.3 x18.2 VrD0497G96 TR93D0F KC2013 11 19.85244203 48 28.36 +11 18 39.9 x16.4 RqD0497J95 TR93D0F KC2013 11 19.85378403 48 57.79 +11 18 11.6 x16.2 RqD0497J95 TR93D0F KC2013 11 19.85565903 49 38.89 +11 17 32.3 x16.9 RqD0497J95 TR93D0F KC2013 11 19.85683103 50 04.81 +11 17 08.6 x16.8 RqD0497J95 TR93D0F C2014 09 13.38140 22 30 05.069+00 57 30.01 x18.2 i D0511F51 TR93D0F C2014 09 13.39285 22 30 23.341+00 58 11.84 x18.2 i D0511F51 TR93D0F C2014 09 14.29376 23 36 38.60 +01 38 47.0 x17.8 V D0511703 TR93D0F C2014 09 14.30030 23 37 01.08 +01 39 15.1 x18.0 V D0511703 TR93D0F C2014 09 14.30681 23 37 23.50 +01 39 41.1 x17.9 V D0511703 TR93D0F C2014 09 14.36645 23 40 56.18 +01 43 40.9 x17.8 V D0511703 TR93D0F C2014 09 14.36728 23 40 59.26 +01 43 43.6 x17.8 V D0511703 TR93D0F C2014 09 14.36894 23 41 05.42 +01 43 49.3 x17.7 V D0511703 TR93D0F C2014 09 14.40588 23 43 29.73 +01 46 07.9 x17.8 V D0511703 TR93D0F C2014 09 14.40614 23 43 30.79 +01 46 08.0 x17.8 V D0511703 TR93D0F C2014 09 14.40642 23 43 31.91 +01 46 09.4 x18.2 V D0511703 TR93D0F C2014 09 14.40668 23 43 33.11 +01 46 10.1 x17.9 V D0511703 TR93D0F 1C2014 09 14.52709 00 02 48.89 +03 58 55.0 x D0511Q62 TR93D0F 1C2014 09 14.52815 00 02 53.84 +03 59 04.0 x D0511Q62 TR93D0F 1C2014 09 14.52921 00 02 58.82 +03 59 13.6 x D0511Q62 TR93D0F 1C2014 09 14.53028 00 03 03.77 +03 59 22.9 x D0511Q62 TR93D0F 1C2014 09 14.53134 00 03 08.72 +03 59 32.0 x17.6 w D0511Q62 TR93D0F KC2014 09 14.99103401 08 00.33 +01 48 37.9 x18.3 RqD0511J95 TR93D0F KC2014 09 14.99462501 08 33.51 +01 48 47.5 x18.4 RqD0511J95 TR93D0F KC2014 09 15.00143601 09 36.66 +01 49 04.3 x18.4 RqD0511J95 TR93D0F KC2014 09 15.00800901 10 37.96 +01 49 20.5 x18.6 RqD0511J95 TR93D0F KC2014 09 15.01232501 11 18.38 +01 49 31.0 x18.7 RqD0511J95 TR93D0F C2015 09 12.34225 22 17 43.094-05 39 09.77 x17.6 w D0520F51 TR93D0F C2015 09 12.35411 22 18 07.308-05 39 56.54 x17.7 w D0520F51 TR93D0F C2015 09 12.36597 22 18 31.416-05 40 40.97 x17.6 w D0520F51 TR93D0F C2015 10 01.15947 22 50 23.20 -06 23 32.3 x18.9 VqD0520G96 TR93D0F C2015 10 01.16457 22 50 40.07 -06 23 57.8 x18.6 VqD0520G96 TR93D0F C2015 10 01.16968 22 50 56.93 -06 24 22.2 x19.0 VqD0520G96 TR93D0F C2015 10 01.17478 22 51 13.21 -06 24 46.1 x18.5 VqD0520G96 2008-051A C2016 09 11.29629 23 05 04.53 -17 53 49.6 17.8 VqD0550G96 2008-051A C2016 09 11.30107 23 05 26.87 -17 54 55.3 17.8 VqD0550G96 2008-051A C2016 09 11.30582 23 05 49.23 -17 55 59.1 17.8 VqD0550G96 2008-051A C2016 09 11.30961 23 06 07.24 -17 56 49.6 17.8 VqD0550G96 2008-051A C2017 08 20.40153 20 27 58.52 -17 29 01.9 19.2 c D0557T05 2008-051A C2017 08 20.40985 20 28 08.12 -17 31 16.7 19.1 c D0557T05 2008-051A C2017 08 20.41817 20 28 18.16 -17 33 30.2 19.1 c D0557T05 2008-051A C2017 08 20.42745 20 28 29.59 -17 35 53.8 19.1 c D0557T05 ZLB28EC C2018 06 12.29238 16 32 12.15 +10 00 10.4 19.3 GU G96 ZLB28EC C2018 06 12.30285 16 32 46.05 +09 50 58.6 19.6 GU G96 ZLB28EC C2018 06 12.30808 16 33 03.07 +09 46 21.0 19.1 GU G96 Station data: (703) Catalina Sky Survey (N32.417006 W110.732640) US/Arizona. Observers A. R. Gibbs, A. Boattini, R. Hill. Measurers J. D. Ahern, E. C. Beshore, A. Boattini, G. J. Garradd, A. R. Gibbs, A. D. Grauer, R. E. Hill, R. A. Kowalski, S. M. Larson, R. H. McNaught, E. J. Christensen, J. A. Johnson, F. C. Shelly, R. J. Sanders. 0.68-m Schmidt + CCD. (F51) Pan-STARRS 1, Haleakala (N20.707235 W156.255910) US/Hawaii. Observers N. Primak, A. Schultz, S. Watters, J. Thiel, T. Goggia. Measurer PS1 Science Consortium. 1.8-m Ritchey-Chrétien + CCD. (G96) Mt. Lemmon Survey (N32.442754 W110.788720) US/Arizona. Observers R. A. Kowalski, D. C. Fuls, A. R. Gibbs, G. J. Leonard. Measurers J. D. Ahern, E. C. Beshore, A. Boattini, G. J. Garradd, A. R. Gibbs, A. D. Grauer, R. E. Hill, R. A. Kowalski, S. M. Larson, R. H. McNaught, E. J. Christensen, D. C. Fuls, J. A. Johnson, R. G. Matheny, F. C. Shelly, B. M. Africano, H. Groeller, G. J. Leonard, R. L. Seaman. 1.5-m reflector + CCD, 1.5-m reflector + 10K CCD. (H21) Astronomical Research Observatory, Westfield (N39.483057 W87.968270) US/Illinois. 0.76-m f/3.0 astrograph + CCD. (I93) St Pardon de Conques (N44.558710 W0.203000) France. Observer F. Losse. 0.40-m f/5.0 reflector + CCD. (J04) ESA Optical Ground Station, Tenerife (N28.300924 W16.511830) Canary Islands (Spain). Observer D. Abreu. Measurers M. Micheli, D. Koschny, E. Schwab, M. Busch, A. Knöfel. 1.0-m f/4.4 reflector + CCD. (J95) Great Shefford (N51.474969 W1.447003) UK. Observer P. Birtwhistle. 0.40-m f/6.0 Schmidt-Cassegrain + CCD. (Q62) iTelescope Observatory, Siding Spring (S31.273289 E149.064420) Australia/NSW. 0.50-m f/6.8 astrograph + CCD + focal reducer, 0.70-m f/6.6 astrograph + CCD. (T05) ATLAS-HKO, Haleakala (N20.707573 W156.257010) US/Hawaii. Observers L. Denneau, A. Heinze, H. Weiland, B. Stalder, J. Tonry, A. Sherstyuk. Measurers L. Denneau, A. Heinze, J. Tonry. 0.5-m f/2.0 Schmidt + CCD. Orbital elements: 2008-051A = TR93D0F = IBEX = NORAD 33401 Perigee 2018 Jun 20.041060 +/- 1.8e-5 TT = 0:59:07 (JD 2458289.541060) Epoch 2018 Jun 24.0 TT = JDT 2458293.5 Gray M 154.0441099 +/- 0.0007 (J2000 equator) n 38.9104417932 +/- 3.09e-5 Peri. 29.2811895 +/- 0.00017 a186162.72680 +/- 0.0986 Node 84.4628703 +/- 0.00010 e 0.591725257 +/- 2.39e-6 Incl. 34.7851176 +/- 0.00012 P 9.25d H 31.9 G 0.15 U 5.8 q 76005.539364 +/- 0.411 Q 296319.91423 +/- 0.583 11 of 128 observations 2016 Sept. 11-2018 June 12; mean residual 1".002
